Flag for U.S.A. Weather past 2 weeks in Odessa, Texas, U.S.A.

Now
93 °F

Sunny.


Feels Like: 90 °F
Forecast: 70 / 96 °F
Wind: 13 mph from South

Location: Odessa-Schlemeyer Field

Current Time: Aug 27, 2015 at 2:38:22 PM

Latest Report: Aug 27, 2015 at 1:53 PM


Visibility: 10 mi

Pressure: 29.98 "Hg (27.17 "Hg at 882m altitude)

Humidity: 22%

Dew point: 49 °F

Location of OdessaLocation

Historic Weather in Odessa — Graph

°F

Odessa temperature yesterday

Maximum temperature yesterday: 94 °F (at 2:53 PM)
Minimum temperature yesterday: 70 °F (at 4:53 AM)
Average temperature yesterday: 82 °F

Past Weeks' High & Low Weather Summary

 TemperatureHumidityPressure
High101 °F (Aug 14, 1:53 PM)90% (Aug 15, 6:53 AM)30.24 "Hg (Aug 15, 6:53 AM)
Low63 °F (Aug 20, 2:53 AM)18% (Aug 13, 5:53 PM)29.58 "Hg (Aug 18, 7:53 PM)
Average84 °F46%29.90 "Hg
* Reported Aug 12 12:53 PM — Aug 27 12:53 PM, Odessa, Weather by CustomWeather, © 2015

Note: Actual official high and low records may vary slightly from our data, if they occured in-between our weather recording intervals... More about our weather records

Advertising

Odessa weather history for previous 24 hours

 ConditionsComfort  
Time TempWeatherWind HumidityBarometerVisibility
12:53 PM
Thu, Aug 27
91 °FSunny.N/A28%30.01 "Hg10 mi
11:53 AM89 °FSunny.9 mph34%30.03 "Hg10 mi
10:53 AM85 °FSunny.10 mph43%30.03 "Hg10 mi
9:53 AM82 °FSunny.13 mph49%30.03 "Hg10 mi
8:53 AM77 °FSunny.8 mph58%30.03 "Hg10 mi
7:53 AM73 °FClear.No wind66%30.01 "Hg10 mi
6:53 AM72 °FClear.3 mph68%30.01 "Hg10 mi
5:53 AM72 °FClear.6 mph68%30.01 "Hg10 mi
4:53 AM72 °FClear.7 mph68%30.02 "Hg10 mi
3:53 AM73 °FClear.5 mph66%30.01 "Hg10 mi
2:53 AM74 °FClear.6 mph62%30.02 "Hg10 mi
1:53 AM74 °FClear.7 mph62%30.03 "Hg10 mi
12:53 AM76 °FClear.6 mph58%30.03 "Hg10 mi
11:53 PM
Wed, Aug 26
79 °FClear.7 mph50%30.03 "Hg10 mi
10:53 PM82 °FClear.12 mph48%30.04 "Hg10 mi
9:53 PM85 °FClear.10 mph39%30.02 "Hg10 mi
8:53 PM88 °FSunny.12 mph35%30.00 "Hg10 mi
7:53 PM91 °FSunny.9 mph28%29.98 "Hg10 mi
6:53 PM93 °FSunny.9 mph24%29.98 "Hg10 mi
5:53 PM94 °FSunny.12 mph25%29.98 "Hg10 mi
4:53 PM94 °FSunny.12 mph26%30.00 "Hg10 mi
3:53 PM94 °FPartly sunny.12 mph28%30.02 "Hg10 mi
2:53 PM94 °FScattered clouds.12 mph27%30.05 "Hg10 mi
Weather by CustomWeather, © 2015

See weather overviewHow to use our weather pages